Flag for U.S.A. Weather past 2 weeks in Cape Coral, Florida, U.S.A.

Now
95 °F

Scattered clouds.


Feels Like: 101 °F
Forecast: 78 / 92 °F
Wind: 6 mph from South

Location: Page Field

Current Time: Aug 21, 2014 at 6:09:27 PM

Latest Report: Aug 21, 2014 at 4:53 PM


Visibility: 10 mi

Pressure: 30.04 "Hg

Humidity: 43%

Dew point: 69 °F

Location of Cape CoralLocation

Historic Weather in Cape Coral — Graph

°F

Cape Coral temperature yesterday

Maximum temperature yesterday: 95 °F (at 3:53 PM)
Minimum temperature yesterday: 79 °F (at 9:53 PM)
Average temperature yesterday: 85 °F

Past Weeks' High & Low Weather Summary

 TemperatureHumidityPressure
High96 °F (Aug 19, 3:53 PM)100% (Aug 15, 7:53 PM)30.13 "Hg (Aug 15, 7:53 PM)
Low72 °F (Aug 15, 6:53 PM)40% (Aug 18, 2:53 PM)29.95 "Hg (Aug 7, 5:53 PM)
Average83 °F76%30.03 "Hg
* Reported Aug 6 4:53 PM — Aug 21 4:53 PM, Cape Coral, Weather by CustomWeather, © 2014

Note: Actual official high and low records may vary slightly from our data, if they occured in-between our weather recording intervals... More about our weather records

Advertising

Cape Coral weather history for previous 24 hours

 ConditionsComfort  
Time TempWeatherWind HumidityBarometerVisibility
4:53 PM
Aug 21
95 °FScattered clouds.6 mph43%30.04 "Hg10 mi
3:53 PM95 °FSunny.8 mph43%30.05 "Hg10 mi
2:53 PM95 °FPassing clouds.6 mph46%30.06 "Hg10 mi
1:53 PM92 °FScattered clouds.5 mph52%30.08 "Hg10 mi
12:53 PM94 °FSunny.6 mph52%30.10 "Hg10 mi
11:53 AM91 °FScattered clouds.3 mph57%30.12 "Hg10 mi
10:53 AM83 °FSunny.3 mph77%30.13 "Hg10 mi
9:53 AM81 °FSunny.No wind82%30.12 "Hg10 mi
8:53 AM79 °FSunny.No wind88%30.11 "Hg10 mi
7:53 AM78 °FClear.No wind93%30.11 "Hg10 mi
6:53 AM77 °FClear.3 mph94%30.08 "Hg10 mi
5:53 AM77 °FClear.No wind94%30.06 "Hg10 mi
4:53 AM77 °FClear.No wind94%30.06 "Hg10 mi
3:53 AM77 °FClear.No wind94%30.07 "Hg10 mi
2:53 AM78 °FClear.No wind93%30.09 "Hg10 mi
1:53 AM78 °FClear.5 mph93%30.09 "Hg10 mi
12:53 AM79 °FClear.No wind88%30.11 "Hg10 mi
11:53 PM
Aug 20
80 °FClear.No wind81%30.10 "Hg10 mi
10:53 PM79 °FClear.No wind84%30.09 "Hg10 mi
9:53 PM79 °FPassing clouds.5 mph84%30.09 "Hg10 mi
8:53 PM83 °FSunny.No wind72%30.06 "Hg10 mi
7:53 PM83 °FSunny.5 mph72%30.05 "Hg10 mi
6:53 PM81 °FPassing clouds.5 mph77%30.06 "Hg10 mi
Weather by CustomWeather, © 2014

See weather overviewHow to use our weather pages